Regional Weather Roundup
Issued by NWS

Home | Current Version | Previous Version | Text Only | Print | Product List | Glossary On
Versions: 1 2 3 4 5 6 7 8 9 10 11 12 13 14 15 16 17 18 19 20 21 22 23 24 25 26 27 28 29 30 31 32 33 34 35 36 37 38 39 40 41 42 43 44 45 46 47 48 49 50
000
ASUS43 KMKX 211900
RWRWI

WISCONSIN REGIONAL WEATHER ROUNDUP
NATIONAL WEATHER SERVICE MILWAUKEE/SULLIVAN WI
200 PM CDT MON MAY 21 2018

NOTE: "FAIR" INDICATES FEW OR NO CLOUDS BELOW 12,000 FEET WITH NO
SIGNIFICANT WEATHER AND/OR OBSTRUCTIONS TO VISIBILITY.

WIZ001-002-006>008-014>016-023>028-212000-
NORTHWEST WISCONSIN

CITY           SKY/WX    TMP DP  RH WIND       PRES   REMARKS
SUPERIOR ARPT  FAIR      61  40  46 E7        30.08F
ASHLAND        FAIR      69  38  32 N12       30.07F
HAYWARD        PTSUNNY   70  30  22 S13       30.08F
SIREN          CLOUDY    68  16  13 SE6       30.08S
CUMBERLAND     CLOUDY    64  30  27 SE10      30.09F
RICE LAKE      PTSUNNY   69  30  23 E10       30.09F
CHETEK         CLOUDY    65  40  39 E10G21    30.09F
LADYSMITH      CLOUDY    64  43  45 SE8       30.13S
EAU CLAIRE     NOT AVBL
MENOMONIE      CLOUDY    60  44  57 E12       30.08F
NEW RICHMOND   CLOUDY    65  34  31 E7        30.07F
OSCEOLA        CLOUDY    66  35  31 E9        30.09F
$$

WIZ003>005-009-010-017-018-212000-
NORTH CENTRAL WISCONSIN

CITY           SKY/WX    TMP DP  RH WIND       PRES   REMARKS
MANITOWISH WTR FAIR      70  29  21 SE10      30.10F
ARBOR VITAE    FAIR      72  39  30 SE8       30.10F
WOODRUFF       FAIR      72  39  30 SE8       30.10F
RHINELANDER    FAIR      68  40  35 S10       30.12F
EAGLE RIVER    FAIR      69  35  28 SE7       30.10F
LAND O LAKES   FAIR      72  28  19 SE9       30.12F
PHILLIPS       CLOUDY    65  41  42 S9        30.11S
TOMAHAWK       FAIR      66  40  39 SE8       30.12F
MEDFORD        CLOUDY    57  46  66 SE7       30.12S
MERRILL        LGT RAIN  58  49  73 SE5       30.13S
$$

WIZ029-030-035-036-043>047-212000-
CENTRAL WISCONSIN

CITY           SKY/WX    TMP DP  RH WIND       PRES   REMARKS
WAUSAU         RAIN      55  50  83 SE3       30.12R
MOSINEE        RAIN      54  52  94 E3        30.14S
MARSHFIELD     LGT RAIN  54  52  93 E8        30.10F FOG
STEVENS POINT  RAIN      53  52  97 E5        30.14S
WAUPACA        LGT RAIN  62  51  68 E7        30.13S
WAUTOMA        LGT RAIN  56  55  97 E8        30.12S
WISC RAPIDS    RAIN      55  53  93 E7        30.11F FOG
CAMP DOUGLAS   LGT RAIN  55  55 100 E9        30.08F
$$

WIZ011>013-019>022-031-037>040-048>050-212000-
NORTHEAST WISCONSIN

CITY           SKY/WX    TMP DP  RH WIND       PRES   REMARKS
ANTIGO         CLOUDY    58  46  62 SE8       30.14S
SHAWANO        CLOUDY    62  49  62 SE5       30.14S
OCONTO         CLOUDY    57  47  69 E6        30.14F
STURGEON BAY   PTSUNNY   58  48  69 SE7       30.16F
GREEN BAY      CLOUDY    60  49  66 SE10      30.14F
MANITOWOC      LGT RAIN  53  50  89 E8        30.15F
APPLETON       DRIZZLE   55  48  76 E8        30.12S
CLINTONVILLE   CLOUDY    60  48  62 SE7       30.13S
OSHKOSH        LGT RAIN  55  53  93 E9        30.11F
$$

WIZ032>034-041-042-053>061-212000-
SOUTHWEST WISCONSIN

CITY           SKY/WX    TMP DP  RH WIND       PRES   REMARKS
LA CROSSE      CLOUDY    56  53  90 E5        30.06F
SPARTA         DRIZZLE   53  52  97 E6        30.09S
VIROQUA        CLOUDY    54  54 100 E10       30.06F
BOSCOBEL       CLOUDY    58  56  93 NE3       30.05F
PRAIRIE DU CHI CLOUDY    57  55  92 E3        30.04F
PLATTEVILLE    CLOUDY    58  58 100 NE7       30.05F
$$

WIZ056-057-062-063-064-067-068-212000-
SOUTH CENTRAL WISCONSIN

CITY           SKY/WX    TMP DP  RH WIND       PRES   REMARKS
REEDSBURG      RAIN      55  55 100 CALM      30.06F
BARABOO/DELLS  RAIN      55  53  94 NE7       30.08F
LONE ROCK      LGT RAIN  57  57 100 E7        30.05S FOG
MINERAL POINT  RAIN      57  57 100 E6        30.06S
MADISON        RAIN      57  56  96 SE9       30.06S FOG
MIDDLETON      CLOUDY    59  57  94 SE5       30.06F
WATERTOWN      DRIZZLE   56  56 100 E13       30.07S
MONROE         DRIZZLE   57  55  94 E7        30.05S
JANESVILLE     CLOUDY    61  61 100 SE9       30.05F
$$

WIZ051-052-058>065-066-070>072-212000-
SOUTHEAST WISCONSIN

CITY           SKY/WX    TMP DP  RH WIND       PRES   REMARKS
MILWAUKEE      LGT RAIN  53  52  96 E14       30.09F VSB 1/4
WAUKESHA       CLOUDY    54  54 100 E12       30.09F FOG
MILWAUKEE/TIMM DRIZZLE   52  48  87 E9        30.10F FOG
RACINE         LGT RAIN  52  51  97 E14       30.09F VSB 1
BURLINGTON     CLOUDY    58  56  94 E9        30.07F
KENOSHA        CLOUDY    56  55  97 E15       30.07F FOG
FOND DU LAC    LGT RAIN  55  53  93 E8        30.10F
SHEBOYGAN      LGT RAIN  51  48  89 E8        30.13F
WEST BEND      LGT RAIN  52  52 100 E8G16     30.10F
JUNEAU         CLOUDY    55  54  95 E9        30.09F
$$

LSZ147-162-212000-
LAKE SUPERIOR

STATION/POSITION TIME  TEMP    WIND        PRES    WAVE
                       AIR SEA DIR/SP/G            HT/PER
                 (UTC) (F)     (DEG/KT/KT) (MB)    (FT/S)
W MID LAKE BUOY  1750   42 37  140/  4/  6 1020.5F   0
DEVILS ISLAND    1800   50      70/  5/  6 1020.2F
SAXON HARBOR     1840   55      30/  3/  5 1018.3F
$$

LMZ867-665-643>646-212000-
LAKE MICHIGAN

STATION/POSITION TIME  TEMP    WIND        PRES    WAVE
                       AIR SEA DIR/SP/G            HT/PER
                 (UTC) (F)     (DEG/KT/KT) (MB)    (FT/S)
NORTHPORT PIER   1840   46                 1021.3F
KEWAUNEE LAKESHO 1830   46      30/  6/  9 1020.6F
SHEBOYGAN LAKESH 1800   46      10/  7/  8 1021.4R
PORT WASHINGTON  1830   49      60/  2/  4 1021.0F
MILWAUKEE LAKESH 1830   47      60/  6/  8   N/A
KENOSHA   LAKESH 1800   49                 1019.0
$$

TC  - TEMPERATURE IN CELSIUS
VSB - VISIBILITY IN STATUTE MILES
WCI - WIND CHILL INDEX
HX  - HEAT INDEX





USA.gov is the U.S. government's official web portal to all federal, state and local government web resources and services.